Location: Bagnolo San Vito
(45.0833°N, 10.8833°E)
Time: 22:52:22
(UTC+00:00)

Cosmos 2333 Rocket - Pass Details

Date: 03 March 2021
Orbit: 837 x 864 km, 70.8° (Epoch: 17 April)

Event Time Altitude Azimuth Distance (km) Brightness Sun altitude
Rises 18:46:24 0° 189° (S) 3,384 5.3 -18.4°
Reaches altitude 10° 18:48:52 10° 184° (S) 2,457 4.6 -18.8°
Maximum altitude 18:54:20 53° 109° (ESE) 1,040 2.3 -19.7°
Drops below altitude 10° 18:59:52 10° 35° (NE) 2,491 4.4 -20.7°
Sets 19:02:23 0° 30° (NNE) 3,435 5.2 -21.1°
